Weather History for Reading, PA

Change the Weather History Date:

Thursday, January 9, 2014

  Actual Average Record
Temperature  
Mean Temperature 26 °F 30 °F  
Max Temperature 34 °F 38 °F 67 °F (1930)
Min Temperature 18 °F 22 °F -6 °F (1970)
Degree Days  
Heating Degree Days 39 35  
Month to date heating degree days 405 314  
Since 1 July heating degree days 2393 2345  
Cooling Degree Days 0 0  
Month to date cooling degree days 0 0  
Year to date cooling degree days 0 0  
Moisture  
Dew Point 12 °F    
Average Humidity 58    
Maximum Humidity 74    
Minimum Humidity 41    
Precipitation  
Precipitation 0.00 in 0.10 in 1.66 in (1978)
Month to date precipitation 1.12 1.01  
Year to date precipitation 1.12 1.01  
Sea Level Pressure  
Sea Level Pressure 30.61 in    
Wind  
Wind Speed 1 mph (North)    
Max Wind Speed 7 mph    
Max Gust Speed 9 mph    
Visibility 10 miles    
Events      
T = Trace of Precipitation, MM = Missing Value Source: NWS Daily Summary

Daily Weather History Graph

Daily Weather History Graph

Search for Another Location

Airport:

Trip Planner

Search our weather history database for the weather conditions in past years. The results will help you decide how hot, cold, wet, or windy it might be!

Date:

Astronomy

Jan. 09, 2014 Rise Set
Actual Time 7:26 AM EST 4:55 PM EST
Civil Twilight 6:56 AM EST 5:25 PM EST
Nautical Twilight 6:22 AM EST 5:59 PM EST
Astronomical Twilight 5:49 AM EST 6:32 PM EST
Moon 12:21 PM EST (1/9) 1:31 AM EST (1/9)
Length of Visible Light 10h 29m
Length of Day
9h 29m
Waxing Gibbous, 66% of the Moon is Illuminated
Jan 9
Waxing Gibbous
Jan 15
Full
Jan 24
Last Quarter
Jan 30
New
Feb 6
First Quarter

Hourly Weather History & Observations

Time (EST) Temp. Windchill Dew Point Humidity Pressure Visibility Wind Dir Wind Speed Gust Speed Precip Events Conditions
12:54 AM 21.0 °F - 7.0 °F 55% 30.52 in 10.0 mi Calm Calm - N/A   Overcast
1:54 AM 21.9 °F - 8.1 °F 55% 30.54 in 10.0 mi Calm Calm - N/A   Mostly Cloudy
2:54 AM 21.0 °F - 9.0 °F 60% 30.55 in 10.0 mi Calm Calm - N/A   Mostly Cloudy
3:54 AM 21.9 °F 17.2 °F 10.9 °F 63% 30.56 in 10.0 mi NNW 3.5 mph - N/A   Mostly Cloudy
4:54 AM 21.0 °F - 9.0 °F 60% 30.57 in 10.0 mi Calm Calm - N/A   Mostly Cloudy
5:54 AM 19.9 °F - 10.9 °F 68% 30.59 in 10.0 mi Calm Calm - N/A   Partly Cloudy
6:54 AM 19.0 °F - 10.9 °F 71% 30.60 in 10.0 mi Calm Calm - N/A   Mostly Cloudy
7:54 AM 18.0 °F - 10.9 °F 74% 30.63 in 10.0 mi Calm Calm - N/A   Clear
8:54 AM 23.0 °F - 12.9 °F 65% 30.67 in 10.0 mi Calm Calm - N/A   Clear
9:54 AM 26.1 °F 21.9 °F 12.9 °F 58% 30.69 in 10.0 mi North 3.5 mph - N/A   Clear
10:54 AM 27.0 °F - 12.0 °F 53% 30.69 in 10.0 mi Calm Calm - N/A   Clear
11:54 AM 28.9 °F 23.9 °F 12.0 °F 49% 30.65 in 10.0 mi NNW 4.6 mph - N/A   Clear
12:54 PM 30.0 °F 26.5 °F 12.0 °F 47% 30.61 in 10.0 mi ENE 3.5 mph - N/A   Clear
1:54 PM 30.9 °F - 12.0 °F 46% 30.61 in 10.0 mi Calm Calm - N/A   Clear
2:54 PM 32.0 °F - 12.0 °F 44% 30.61 in 10.0 mi Calm Calm - N/A   Clear
3:54 PM 33.1 °F - 12.9 °F 43% 30.62 in 10.0 mi Calm Calm - N/A   Clear
4:54 PM 30.9 °F - 12.9 °F 47% 30.61 in 10.0 mi Calm Calm - N/A   Clear
6:54 PM 30.0 °F - 12.9 °F 49% 30.61 in 10.0 mi Calm Calm - N/A   Mostly Cloudy
7:54 PM 28.9 °F 25.2 °F 12.9 °F 51% 30.63 in 10.0 mi South 3.5 mph - N/A   Scattered Clouds
8:54 PM 26.1 °F - 15.1 °F 63% 30.61 in 10.0 mi Calm Calm - N/A   Scattered Clouds
9:54 PM 27.0 °F 23.0 °F 15.1 °F 61% 30.63 in 10.0 mi SSW 3.5 mph - N/A   Clear
10:54 PM 28.0 °F - 16.0 °F 61% 30.61 in 10.0 mi Calm Calm - N/A   Scattered Clouds
11:54 PM 30.0 °F 26.5 °F 14.0 °F 51% 30.58 in 10.0 mi SSE 3.5 mph - N/A   Overcast